Location: Newark
(42.8481°N, 0.4872°E)
Time: 08:56:17
(UTC+00:00)

Transit 2A Rocket - Pass Details

Date: 05 November 2020
Orbit: 588 x 914 km, 66.7° (Epoch: 29 November)

Event Time Altitude Azimuth Distance (km) Brightness Sun altitude
Rises 10:15:35 0° 281° (W) 3,518 8.1 28.0°
Reaches altitude 10° 10:20:43 10° 318° (NW) 2,525 7.3 28.4°
Maximum altitude 10:22:00 11° 331° (NNW) 2,459 7.2 28.5°
Drops below altitude 10° 10:23:17 10° 344° (NNW) 2,489 7.2 28.6°
Sets 10:28:10 0° 21° (NNE) 3,336 7.9 28.9°
